This demonstration page uses our WeatherBlox Daily Observations layout. Learn more.

Hourly Observations for March 25, 2019

Temp ( °F °C ) Dew Point ( °F °C ) Humidity (%) Winds ( mph kmh ) Pressure ( in mb ) Visibility ( mi km ) Precip ( " mm )
12:15 am 00:15 Cloudy 45 7 41 5 87 87 NNE 9 15 30.25 1024 10 16.0934 0 0
12:35 am 00:35 Cloudy 44 6.7 41 4.9 88 88 NNE 9 15 30.25 1024 10 16.0934 0 0
12:55 am 00:55 Cloudy 44 6.5 41 5 90 90 NNE 9 15 30.25 1025 10 16.0934 0 0
1:15 am 01:15 Cloudy 44 6.5 41 5 90 90 NNE 8 13 30.26 1025 10 16.0934 0 0
1:35 am 01:35 Cloudy 43 6.1 41 5.1 93 93 NNE 8 13 30.27 1025 10 16.0934 0 0
1:55 am 01:55 Cloudy 43 6 41 5.2 95 95 N 7 11 30.28 1025 10 16.0934 0 0
2:15 am 02:15 Cloudy 42 5.8 41 5.2 96 96 N 3 6 30.28 1025 10 16.0934 0 0
2:35 am 02:35 Cloudy 42 5.8 42 5.3 97 97 N 5 7 30.29 1026 10 16.0934 0 0
2:55 am 02:55 Cloudy 42 5.8 42 5.5 98 98 N 6 9 30.29 1026 10 16.0934 0 0
3:15 am 03:15 Cloudy 42 5.7 42 5.5 99 99 N 5 7 30.29 1026 10 16.0934 0 0
3:35 am 03:35 Cloudy 42 5.6 42 5.3 98 98 NNE 7 11 30.29 1026 10 16.0934 0 0
3:55 am 03:55 Cloudy 42 5.5 42 5.3 99 99 N 5 7 30.29 1026 10 16.0934 0 0
4:15 am 04:15 Cloudy 42 5.5 41 5.2 98 98 NNE 6 9 30.29 1026 10 16.0934 0 0
4:35 am 04:35 Cloudy 42 5.5 41 5.1 97 97 N 6 9 30.3 1026 7 11.26538 0 0
4:55 am 04:55 Cloudy 42 5.3 41 5.1 99 99 N 6 9 30.31 1026 7 11.26538 0 0
5:15 am 05:15 Cloudy 41 5.1 41 5 99 99 NNE 6 9 30.32 1027 7 11.26538 0 0
5:35 am 05:35 Cloudy 41 5.1 41 5 99 99 NNE 7 11 30.32 1027 7 11.26538 0 0
5:55 am 05:55 Cloudy with Mist and Fog 41 5.1 41 5 99 99 NNE 6 9 30.32 1027 5 8.0467 0 0
6:15 am 06:15 Cloudy 41 5 41 4.9 99 99 N 6 9 30.33 1027 7 11.26538 0 0
6:35 am 06:35 Cloudy with Mist and Fog 40 4.7 40 4.7 100 100 N 6 9 30.33 1027 5 8.0467 0 0
6:55 am 06:55 Cloudy with Mist and Fog 40 4.6 40 4.6 100 100 NNE 5 7 30.34 1027 5 8.0467 0 0
7:15 am 07:15 Cloudy with Mist and Fog 40 4.5 40 4.5 100 100 N 3 6 30.34 1028 5 8.0467 0 0
7:35 am 07:35 Cloudy with Mist and Fog 40 4.5 40 4.5 100 100 NNE 6 9 30.34 1028 5 8.0467 0 0
7:55 am 07:55 Cloudy with Mist and Fog 40 4.5 40 4.5 100 100 NE 6 9 30.34 1028 4 6.43736 0 0
8:15 am 08:15 Cloudy with Mist and Fog 40 4.5 40 4.5 100 100 NE 6 9 30.34 1028 3 4.82802 0 0
8:35 am 08:35 Cloudy with Mist and Fog 40 4.6 40 4.6 100 100 NE 8 13 30.34 1027 4 6.43736 0 0
8:55 am 08:55 Cloudy with Mist and Fog 40 4.6 40 4.5 99 99 ENE 9 15 30.34 1027 5 8.0467 0 0
9:15 am 09:15 Cloudy with Mist and Fog 40 4.2 40 4.2 100 100 ENE 9 15 30.36 1028 2.5 4.02335 0 0
9:35 am 09:35 Cloudy with Mist and Fog 40 4.3 40 4.3 100 100 E 5 7 30.35 1028 1.75 2.816345 0 0
9:55 am 09:55 Cloudy with Mist and Fog 39 4 39 4 100 100 E 5 7 30.38 1029 1.75 2.816345 0 0
10:15 am 10:15 Cloudy with Mist and Fog 40 4.2 40 4.2 100 100 ENE 6 9 30.38 1029 4 6.43736 0 0
10:35 am 10:35 Cloudy with Mist and Fog 40 4.2 39 4.1 99 99 ENE 7 11 30.38 1029 5 8.0467 0 0
10:55 am 10:55 Cloudy 40 4.5 40 4.2 98 98 ENE 6 9 30.38 1029 7 11.26538 0 0
11:15 am 11:15 Cloudy 41 4.8 40 4.2 96 96 NE 7 11 30.38 1029 7 11.26538 0 0
11:35 am 11:35 Cloudy 41 5.1 40 4.2 94 94 E 3 6 30.38 1029 10 16.0934 0 0
11:55 am 11:55 Cloudy 41 5 39 4.1 94 94 Calm 30.39 1029 10 16.0934 0 0
12:15 pm 12:15 Cloudy 41 5.1 39 4 93 93 Calm 30.39 1029 10 16.0934 0 0
12:35 pm 12:35 Cloudy 42 5.5 39 4.1 91 91 Calm 30.38 1029 10 16.0934 0 0
12:55 pm 12:55 Cloudy 42 5.8 40 4.5 91 91 NE 5 7 30.38 1029 10 16.0934 0 0
1:15 pm 13:15 Cloudy 43 5.9 40 4.5 91 91 E 5 7 30.38 1029 10 16.0934 0 0
1:35 pm 13:35 Cloudy 44 6.6 41 4.8 88 88 SE 6 9 30.37 1029 10 16.0934 0 0
1:55 pm 13:55 Cloudy 44 6.6 40 4.6 87 87 SE 5 7 30.36 1028 10 16.0934 0 0
2:15 pm 14:15 Cloudy 44 6.6 40 4.7 88 88 SE 5 7 30.36 1028 10 16.0934 0 0
2:35 pm 14:35 Cloudy 45 7 41 4.9 87 87 Calm 30.35 1028 10 16.0934 0 0
2:55 pm 14:55 Cloudy 45 7.1 41 5 87 87 Calm 30.35 1028 10 16.0934 0 0
3:15 pm 15:15 Cloudy 46 7.5 41 5 84 84 SSE 3 6 30.34 1027 10 16.0934 0 0
3:35 pm 15:35 Cloudy 46 8 41 5.1 82 82 SE 3 6 30.32 1027 10 16.0934 0 0
3:55 pm 15:55 Cloudy 47 8.4 42 5.3 81 81 ESE 6 9 30.32 1027 10 16.0934 0 0
4:15 pm 16:15 Cloudy 47 8.6 42 5.3 80 80 SE 7 11 30.31 1026 10 16.0934 0 0
4:35 pm 16:35 Cloudy with Nearby Thunderstorms 49 9.2 42 5.6 78 78 E 6 9 30.3 1026 10 16.0934 0 0
4:55 pm 16:55 Mostly Cloudy 49 9.4 42 5.5 77 77 SE 8 13 30.29 1026 10 16.0934 0 0
5:15 pm 17:15 Partly Cloudy 49 9.6 42 5.6 76 76 SE 9 15 30.28 1025 10 16.0934 0 0
5:35 pm 17:35 Mostly Cloudy 49 9.4 42 5.4 76 76 SE 9 15 30.28 1025 10 16.0934 0 0
5:55 pm 17:55 Cloudy 49 9.7 42 5.6 76 76 SE 10 17 30.28 1025 10 16.0934 0 0
6:15 pm 18:15 Partly Cloudy 51 10.3 43 5.9 74 74 SE 13 20 30.26 1025 10 16.0934 0 0
6:35 pm 18:35 Sunny with Nearby Thunderstorms 50 10 42 5.4 73 73 SSE 10 17 30.26 1025 10 16.0934 0 0
6:55 pm 18:55 Partly Cloudy 49 9.4 42 5.5 77 77 SSE 6 9 30.28 1025 10 16.0934 0 0
7:15 pm 19:15 Cloudy 49 9.3 42 5.7 78 78 S 3 6 30.28 1025 10 16.0934 0 0
7:35 pm 19:35 Cloudy 48 9 43 6 82 82 Calm 30.29 1026 10 16.0934 0 0
7:55 pm 19:55 Cloudy with Rain 46 8 42 5.7 86 86 N 17 28 30.31 1026 10 16.0934 0 0
8:15 pm 20:15 Cloudy with Heavy Rain 43 6.2 43 6 99 99 NE 3 6 30.34 1027 4 6.43736 0.13 3.302
8:35 pm 20:35 Cloudy with Light Rain 45 7.1 43 6.2 94 94 ESE 8 13 30.3 1026 5 8.0467 0.16 4.064
8:55 pm 20:55 Mostly Cloudy 44 6.7 42 5.7 93 93 SE 9 15 30.3 1026 10 16.0934 0.16 4.064
9:15 pm 21:15 Partly Cloudy 43 5.9 41 5.2 95 95 SSE 7 11 30.32 1027 10 16.0934 0 0
9:35 pm 21:35 Mostly Cloudy 42 5.6 42 5.5 99 99 Calm 30.34 1028 10 16.0934 0 0
9:55 pm 21:55 Cloudy 43 6 43 5.9 99 99 Calm 30.34 1027 10 16.0934 0 0
10:15 pm 22:15 Cloudy 42 5.6 42 5.4 99 99 SSE 5 7 30.34 1028 7 11.26538 0 0
10:35 pm 22:35 Mostly Cloudy 41 5.2 41 5.1 99 99 SSE 5 7 30.35 1028 10 16.0934 0 0
10:55 pm 22:55 Mostly Cloudy 41 5.1 41 5 99 99 SSE 6 9 30.35 1028 10 16.0934 0 0
11:15 pm 23:15 Mostly Cloudy 40 4.5 40 4.4 99 99 SSE 5 7 30.35 1028 10 16.0934 0 0
11:35 pm 23:35 Cloudy 40 4.5 40 4.4 99 99 SSE 5 7 30.35 1028 10 16.0934 0 0
11:55 pm 23:55 Cloudy 40 4.7 40 4.7 100 100 SSE 3 6 30.35 1028 7 11.26538 0 0

Powered by AerisWeather